Astoria, OR

6:28 PM PST on December 08, 2016 (GMT -0800)
Astoria Regional

Weather History for KAST - July, 2013

Change the Weather History Date:

Tuesday, July 30, 2013

  Actual Average Record
Temperature  
Mean Temperature 59 °F 61 °F  
Max Temperature 65 °F 68 °F 87 °F (1908)
Min Temperature 52 °F 54 °F 45 °F (1949)
Degree Days  
Heating Degree Days 6 4  
Month to date heating degree days 137 144  
Since 1 June heating degree days 318 386  
Since 1 July heating degree days 137 144  
Cooling Degree Days 0 0  
Month to date cooling degree days 0 0  
Year to date cooling degree days 4 0  
Since 1 June cooling degree days 3 0  
Growing Degree Days 10 (Base 50)    
Moisture  
Dew Point 54 °F    
Average Humidity 86    
Maximum Humidity 100    
Minimum Humidity 72    
Precipitation  
Precipitation 0.00 in 0.03 in 0.78 in (1985)
Month to date precipitation 0.01 1.01  
Year to date precipitation 34.98 36.92  
Snow  
Snow 0.00 in - - ()
Month to date snowfall 0.0  
Since 1 June snowfall 0.0  
Snow Depth 0.00 in    
Sea Level Pressure  
Sea Level Pressure 30.14 in    
Wind  
Wind Speed 3 mph (West)    
Max Wind Speed 9 mph    
Max Gust Speed 12 mph    
Visibility 10 miles    
Events      
T = Trace of Precipitation, MM = Missing Value Source: NWS Daily Summary

Daily Weather History Graph

Daily Weather History Graph

Search for Another Location

Airport or City:

Trip Planner

Search our weather history database for the weather conditions in past years. The results will help you decide how hot, cold, wet, or windy it might be!

Date:

Astronomy

Jul. 30, 2013 Rise Set
Actual Time 5:55 AM PDT 8:47 PM PDT
Civil Twilight 5:20 AM PDT 9:22 PM PDT
Nautical Twilight 4:35 AM PDT 10:06 PM PDT
Astronomical Twilight 3:42 AM PDT 10:59 PM PDT
Moon 12:19 AM PDT (7/30) 3:12 PM PDT (7/30)
Length of Visible Light 16h 01m
Length of Day
14h 52m
Last Quarter, 40% of the Moon is Illuminated
Jul 30
Last Quarter
Aug 6
New
Aug 14
First Quarter
Aug 20
Full
Aug 28
Last Quarter

Hourly Weather History & Observations

Time (PDT) Temp. Dew Point Humidity Pressure Visibility Wind Dir Wind Speed Gust Speed Precip Events Conditions
12:02 AM 57.2 °F 53.6 °F 88% 30.07 in 10.0 mi West 4.6 mph - N/A   Overcast
12:55 AM 57.0 °F 52.0 °F 83% 30.08 in 10.0 mi WSW 3.5 mph - N/A   Overcast
1:55 AM 54.0 °F 53.1 °F 97% 30.08 in 10.0 mi SW 3.5 mph - N/A   Overcast
2:19 AM 53.6 °F 51.8 °F 94% 30.09 in 10.0 mi SW 4.6 mph - N/A   Overcast
2:55 AM 52.0 °F 52.0 °F 100% 30.09 in 10.0 mi WSW 3.5 mph - N/A   Overcast
3:55 AM 54.0 °F 53.1 °F 97% 30.09 in 10.0 mi Calm Calm - N/A   Overcast
4:55 AM 57.0 °F 53.1 °F 87% 30.10 in 10.0 mi Calm Calm - N/A   Overcast
5:55 AM 57.0 °F 54.0 °F 89% 30.11 in 10.0 mi South 3.5 mph - N/A   Overcast
6:55 AM 57.0 °F 54.0 °F 89% 30.13 in 10.0 mi South 3.5 mph - N/A   Overcast
7:34 AM 57.2 °F 53.6 °F 88% 30.14 in 9.0 mi South 3.5 mph - N/A   Overcast
7:55 AM 57.0 °F 55.0 °F 93% 30.14 in 9.0 mi Calm Calm - N/A   Overcast
8:55 AM 59.0 °F 55.0 °F 87% 30.14 in 10.0 mi Calm Calm - N/A   Overcast
9:55 AM 59.0 °F 54.0 °F 83% 30.15 in 10.0 mi Calm Calm - N/A   Overcast
10:55 AM 60.1 °F 54.0 °F 80% 30.16 in 10.0 mi WNW 3.5 mph - N/A   Overcast
11:48 AM 60.8 °F 53.6 °F 77% 30.17 in 10.0 mi Calm Calm - N/A   Overcast
11:55 AM 61.0 °F 54.0 °F 78% 30.17 in 10.0 mi Calm Calm - N/A   Overcast
12:55 PM 62.1 °F 55.0 °F 78% 30.17 in 10.0 mi Calm Calm - N/A   Overcast
1:55 PM 62.1 °F 55.0 °F 78% 30.17 in 10.0 mi West 4.6 mph - N/A   Overcast
2:55 PM 63.0 °F 54.0 °F 72% 30.17 in 10.0 mi West 4.6 mph - N/A   Overcast
3:55 PM 63.0 °F 55.0 °F 75% 30.16 in 10.0 mi WNW 4.6 mph - N/A   Overcast
4:55 PM 63.0 °F 55.0 °F 75% 30.15 in 10.0 mi North 5.8 mph - N/A   Overcast
5:55 PM 63.0 °F 55.0 °F 75% 30.14 in 10.0 mi NNW 9.2 mph - N/A   Overcast
6:55 PM 62.1 °F 55.0 °F 78% 30.13 in 10.0 mi NW 5.8 mph - N/A   Overcast
7:55 PM 60.1 °F 54.0 °F 80% 30.14 in 10.0 mi WNW 6.9 mph - N/A   Overcast
8:55 PM 59.0 °F 54.0 °F 83% 30.14 in 10.0 mi WNW 6.9 mph - N/A   Overcast
9:55 PM 59.0 °F 55.0 °F 87% 30.15 in 10.0 mi West 4.6 mph - N/A   Overcast
10:55 PM 59.0 °F 55.0 °F 87% 30.16 in 10.0 mi WSW 3.5 mph - N/A   Overcast
11:55 PM 57.9 °F 55.0 °F 90% 30.16 in 10.0 mi WSW 3.5 mph - N/A   Overcast